Weather WX

World > North America > United States > Ohio

Miamiville, Ohio Regional Weather

Lat: 39.21N, Lon: 84.3W
Wx Zone: OHZ078
Feedback

Miamiville, OH Regional Weather

Expires:201906260300;;081915
ASUS41 KCLE 260200
RWRCLE
OHIO REGIONAL WEATHER ROUNDUP
NATIONAL WEATHER SERVICE WILMINGTON, OH
1000 PM EDT TUE JUN 25 2019

NOTE: "FAIR" INDICATES FEW OR NO CLOUDS BELOW 12,000 FEET WITH NO
SIGNIFICANT WEATHER AND/OR OBSTRUCTIONS TO VISIBILITY.


OHZ042-051>053-060>062-070>072-077>081-260300-
  SOUTHWEST OHIO
  
CITY           SKY/WX    TMP DP  RH WIND       PRES   REMARKS
CINC-COVINGTON FAIR      73  61  65 SW5       30.03R                  
CINC-LUNKEN    FAIR      71  64  78 SW3       30.02R                  
HAMILTON       FAIR      69  66  90 CALM      30.02S                  
DAYTON         NOT AVBL                                               
WRIGHT-PAT AFB CLOUDY    73  61  68 SW8       30.01R                  
DAYTON GENERAL MOCLDY    77  58  51 SW6       30.02R                  
WILMINGTON     FAIR      70  61  73 SW5       30.03R                  
$$


SKY/WX - Weather  TMP - Temperature  DP - Dew Point  RH - Relative Humidity
WIND - Wind Direction/Speed PRES - Barometric Pressure VSB - Visibility
WCI - Wind Chill Index E13G22 Wind - East Wind 13 mph/Gusts of 22 mph